Regional Weather Roundup
Issued by NWS

Home | Current Version | Previous Version | Graphics & Text | Print | Product List | Glossary On
Versions: 1 2 3 4 5 6 7 8 9 10 11 12 13 14 15 16 17 18 19 20 21 22 23 24 25 26 27 28 29 30 31 32 33 34 35 36 37 38 39 40 41 42 43 44 45 46 47 48 49 50
000
ASUS43 KMPX 261001
RWRMN
WEATHER ROUNDUP FOR MINNESOTA
NATIONAL WEATHER SERVICE TWIN CITIES/CHANHASSEN MN
500 AM CDT SAT JUL 26 2014


NOTE: "FAIR" INDICATES FEW OR NO CLOUDS BELOW 12,000 FEET WITH NO
SIGNIFICANT WEATHER AND/OR OBSTRUCTIONS TO VISIBILITY. N/A MEANS
CURRENT SKY AND/OR WEATHER CONDITIONS ARE NOT AVAILABLE.

MNZ060>063-068>070-261100-
   Twin Cities Metro

CITY           SKY/WX    TMP DP  RH WIND       PRES   REMARKS
TWIN CITIES    PTCLDY    73  69  87 SW5       29.79F
ST PAUL        MOCLDY    72  69  90 SE6       29.79F
CRYSTAL        CLEAR     71  67  87 NW3       29.78F
BLAINE         CLEAR     72  70  94 W3        29.80R
LAKEVILLE      PTCLDY    70  68  94 CALM      29.80F
EDEN PRAIRIE   CLEAR     70  69  97 SW3       29.79S FOG
SOUTH ST PAUL  PTCLDY    72  69  90 CALM      29.79F
LAKE ELMO      MOCLDY    70  70 100 S3        29.80F
$$
MNZ001>005-007-008-013>017-022>024-027-028-261100-
   Northwest Minnesota

CITY           SKY/WX    TMP DP  RH WIND       PRES   REMARKS
BEMIDJI        CLEAR     56  53  92 CALM      29.79S
HALLOCK        CLEAR     55  52  88 S7        29.72F
ROSEAU         CLEAR     57  54  88 CALM      29.75S
WARROAD        CLEAR     57  54  88 CALM      29.75S
THIEF RVR FALL CLEAR     55  54  94 SE3       29.76F
CROOKSTON      CLEAR     55  54  94 S5        29.77S
FOSSTON        CLEAR     54  52  94 S7        29.79F
DETROIT LAKES  CLEAR     59  55  88 SW3       29.83R
MOORHEAD       CLEAR     61  57  88 S3        29.80F
PARK RAPIDS    CLEAR     53  52  96 W5        29.81S
$$
MNZ006-009>011-018-025>026-261100-
   North Central Minnesota

CITY           SKY/WX    TMP DP  RH WIND       PRES   REMARKS
BAUDETTE       CLEAR     58  53  84 CALM      29.76S
FLAG ISLAND    CLEAR     64  55  72 W9        29.72S
INTL FALLS     CLEAR     56  55  97 W5        29.74S
WASKISH        CLEAR     66  57  72 W10G16    29.77R
BIG FORK       CLEAR     57  55  94 SW2       29.78S
LONGVILLE      CLEAR     55  54  94 CALM      29.79S
GRAND RAPIDS   CLEAR     63  57  82 W6        29.79S
CRANE LAKE     CLEAR     54  54 100 CALM      29.75S FOG
ORR            CLEAR     59  55  88 CALM      29.74R
COOK           CLEAR     59  59 100 CALM      29.76S
$$
MNZ012-019>021-037-261100-
   Northeast Minnesota

CITY           SKY/WX    TMP DP  RH WIND       PRES   REMARKS
DULUTH         PTCLDY    68  65  90 NW8       29.77S
ELY            CLEAR     61  61 100 CALM      29.75S
HIBBING        FOG       53  51  93 CALM      29.77S VSB 1/4
EVELETH        FOG       59  59 100 CALM      29.77F VSB 1/2
DULUTH HARBOR  PTCLDY    70  66  88 SW7       29.75S
TWO HARBORS    CLEAR     66  63  88 NW3       29.72F
SILVER BAY     CLEAR     63  63 100 CALM      29.72F
GRAND MARAIS     N/A     54  53  97 CALM      29.70F
G MARAIS ARPRT CLOUDY    64  61  88 S3        29.74F FOG
$$
MNZ029>031-032-039>041-046>048-054>057-064-261100-
   West Central Minnesota

CITY           SKY/WX    TMP DP  RH WIND       PRES   REMARKS
FERGUS FALLS   CLEAR     59  55  88 CALM      29.83F
MORRIS         CLEAR     57  57 100 CALM      29.81F FOG
ALEXANDRIA     CLEAR     60  58  92 CALM      29.85R
ELBOW LAKE     FAIR      59  59  99 CALM      29.83F
WADENA         CLEAR     54  54 100 CALM      29.82R
GLENWOOD       FOG       64  63  94 NW3       29.84S VSB 1/4
APPLETON       FOG       63  59  88 CALM      29.80F VSB 1/4
BENSON         FOG       57  55  94 NE3       29.82S VSB 1/4
ORTONVILLE     PTCLDY    64  63  94 CALM      29.80F
MADISON        FOG       64  63  94 CALM      29.80F VSB 1/2
WILLMAR        DRZL/FOG  64  63  94 CALM      29.83S VSB<1/4
$$
MNZ033>034-036-042>043-049>051-058-059-261100-
   Central Minnesota

CITY           SKY/WX    TMP DP  RH WIND       PRES   REMARKS
ST CLOUD       FOG       63  62  97 CALM      29.80S VSB 1/4
SAUK CENTRE    FOG       59  59  99 CALM      29.84R VSB 1/2
PAYNESVILLE    FOG       56  56 100 CALM      29.83R VSB 1/4
AITKIN         HAZE      59  54  82 CALM      29.79R VSB 1/4
PINE RIVER     CLEAR     57  57 100 CALM      29.84S
BRAINERD       CLEAR     57  57 100 CALM      29.81R FOG
STAPLES        CLEAR     55  55 100 W5        29.82R
LONG PRAIRIE   FAIR      57  57 100 SW3       29.85R FOG
LITTLE FALLS   FOG       55  54  94 CALM      29.82R VSB 1/4
LITCHFIELD       N/A     68  68 100 CALM      29.82R FOG
BUFFALO        CLEAR     69  66  90 CALM      29.81S FOG
MAPLE LAKE     CLEAR     67  66  95 CALM      29.81F
$$
MNZ037-044-045-052-053-261100-
   East Central Minnesota

CITY           SKY/WX    TMP DP  RH WIND       PRES   REMARKS
PRINCETON      FOG       64  63  94 CALM      29.80S VSB<1/4
MORA             N/A     64  64 100 CALM      29.81S FOG
CAMBRIDGE      CLEAR     70  63  78 CALM      29.78S HAZE
RUSH CITY      MOCLDY    67  65  96 CALM      29.79S
MOOSE LAKE     MOCLDY    66  64  94 W5        29.77R
HINCKLEY       FAIR      66  66 100 W3        29.79S FOG
CLOQUET        PTCLDY    66  63  88 W7        29.78S
MCGREGOR         N/A     63  61  94 CALM      29.79F VSB 1/4
$$
MNZ071>073-080-081-089-090-097-098-261100-
   Southwest Minnesota

CITY           SKY/WX    TMP DP  RH WIND       PRES   REMARKS
MONTEVIDEO     FOG       64  63  94 CALM      29.82F VSB 1/2
GRANITE FALLS  FOG       64  64 100 CALM      29.83S VSB 1/4
CANBY          CLOUDY    64  64  97 CALM      29.83S
MARSHALL       CLOUDY    66  64  94 SW3       29.82F
REDWOOD FALLS  MOCLDY    68  67  96 CALM      29.82R FOG
OLIVIA         FOG       64  63  94 CALM      29.81S VSB 1/2
PIPESTONE      CLOUDY    70  66  88 CALM      29.89R
WINDOM         MOCLDY    70  66  88 CALM      29.85S FOG
WORTHINGTON    MOCLDY    70  68  94 E5        29.85F
JACKSON        CLOUDY    72  68  88 N3        29.86R
TRACY          CLOUDY    67  66  96 SW9       29.86R FOG
SLAYTON        CLOUDY    68  67  99 CALM      29.83F FOG
$$
MNZ065>067-074>077-082>085-091>093-261100-
   South Central Minnesota

CITY           SKY/WX    TMP DP  RH WIND       PRES   REMARKS
MANKATO        CLEAR     70  64  83 N5        29.81S
NEW ULM        MOCLDY    70  70 100 N3        29.81S
ST JAMES       PTCLDY    70  68  94 CALM      29.83S FOG
FAIRMONT       MOCLDY    72  66  83 NW3       29.84S
GLENCOE        CLEAR     69  66  89 CALM      29.80S FOG
FARIBAULT      MOCLDY    73  66  78 CALM      29.82S HAZE
OWATONNA       PTCLDY    70  66  88 CALM      29.82S FOG
WASECA         CLOUDY    64  61  88 S3        29.84R FOG
ALBERT LEA     MOCLDY    72  70  94 CALM      29.83S FOG
$$
MNZ078>079-086>088-094>096-261100-
   Southeast Minnesota

CITY           SKY/WX    TMP DP  RH WIND       PRES   REMARKS
ROCHESTER      CLOUDY    69  67  93 S7        29.84F FOG
RED WING       CLOUDY    72  70  94 CALM      29.80S
STANTON        CLOUDY    70  67  91 CALM      29.80S FOG
DODGE CENTER   FOG       70  70 100 S5        29.83F VSB 3/4
WINONA         CLOUDY    70  64  83 CALM      29.83R
AUSTIN         FOG       70  70 100 CALM      29.83F VSB 1/2
PRESTON        CLOUDY    65  66 100 SW3       29.85S FOG
$$
ABBREVIATIONS USED IN REMARKS
   TC - TEMPERATURES IN CELSIUS
  WCI - WIND CHILL INDEX
   HX - HEAT INDEX
  VSB - VISIBILITY
$$


USA.gov is the U.S. government's official web portal to all federal, state and local government web resources and services.